RH
7 8 10 21 22 20 17 11 16 46 59 58 52 51 53 55 56 79 56 51 76 73 72 75 75 73 70 68 69 65 68 67 71 68 63 56 68 72 70 72 73 69 80 73 76 65 46 43 59
8 13 18 19 21 19 14 12 58 55 52 50 55 55 61 75 58 43 48 65 67 56 65 70 70 76 76 75 70 67 64 62 68 68 70 67 65 68 72 75 79 76 70 64 58 59 50 52 59
12 17 24 23 20 19 11 58 70 62 59 53 71 71 73 81 62 74 71 64 55 44 51 60 58 68 74 73 71 68 67 67 72 72 69 69 69 68 70 73 74 79 80 75 53 46 48 54 60
14 16 18 20 19 14 10 36 72 70 61 54 64 80 74 68 63 76 67 57 37 44 48 56 57 64 74 73 69 66 69 71 73 75 75 76 74 71 69 70 75 77 77 76 64 56 51 49 50
13 16 22 20 16 16 57 66 63 71 60 58 58 79 78 61 75 70 56 58 39 43 44 47 49 59 70 75 73 71 69 68 71 73 74 74 75 76 67 59 61 64 69 68 58 57 63 62 57
20 14 16 16 16 25 50 56 64 69 64 63 64 67 71 71 81 77 79 69 64 66 61 44 38 41 49 68 77 79 77 74 72 68 66 65 66 65 65 58 54 58 53 50 49 52 55 58 58
18 22 20 23 24 28 48 41 51 59 60 60 51 71 66 70 73 73 74 73 75 77 80 79 67 60 47 41 48 56 62 66 67 69 68 65 60 57 58 53 50 50 51 53 49 46 48 50 50
14 20 22 25 25 26 38 38 38 44 50 40 48 71 82 66 69 66 66 68 70 75 77 79 87 87 72 69 44 46 50 54 56 59 59 55 51 59 62 61 62 64 57 46 42 47 50 48 45
10 23 26 23 31 38 34 43 40 39 46 44 52 62 64 65 60 64 67 67 68 69 72 73 76 81 85 81 65 45 56 44 47 50 54 68 56 67 77 73 66 60 59 57 43 39 38 40 42
17 28 24 32 37 43 38 41 41 46 52 52 51 63 66 59 58 55 55 56 56 62 65 73 72 70 77 81 85 84 72 70 67 65 66 66 66 63 69 60 54 55 57 57 42 45 43 44 42
14 22 25 26 33 38 39 39 39 48 60 55 59 50 42 40 42 45 47 49 52 55 62 69 71 77 78 82 82 83 89 85 85 90 81 82 79 71 71 62 61 60 59 62 56 57 52 53 56
15 14 19 31 46 51 42 35 36 34 43 42 40 38 34 34 33 37 42 46 49 49 55 61 70 72 71 81 85 86 86 88 86 86 81 77 76 74 73 76 83 80 75 69 64 66 54 54 54
18 25 30 33 36 34 30 35 37 35 30 30 28 31 39 32 32 33 35 41 45 47 49 55 65 69 74 86 85 86 88 86 92 97 97 92 87 83 82 81 78 78 83 92 90 81 68 60 52
24 30 32 33 31 30 34 33 30 32 29 27 27 29 39 37 35 34 36 40 46 48 50 53 58 62 78 82 71 76 84 85 85 90 94 96 97 98 98 94 88 87 84 83 82 84 79 77 64
25 37 36 36 32 33 30 40 36 28 27 31 31 31 33 34 33 37 37 41 45 49 51 55 52 54 67 77 67 74 79 79 82 87 88 85 90 95 96 96 95 95 94 96 91 88 82 78 76
30 34 48 37 33 32 33 49 34 28 29 36 38 39 42 47 36 35 39 42 45 50 53 53 50 50 54 79 68 73 80 81 81 86 91 90 90 87 90 88 86 90 92 91 92 94 90 88 92
27 46 41 42 31 33 36 46 32 27 30 36 38 40 39 41 40 40 41 45 47 52 52 51 50 48 49 72 74 78 81 71 67 73 75 82 90 91 100 98 84 85 82 82 82 84 85 97 96
36 40 39 44 35 35 43 47 36 30 28 32 36 39 42 44 44 40 40 43 44 46 48 50 50 50 50 49 51 55 62 68 63 67 67 74 78 77 98 89 70 76 80 81 75 76 80 88 76
24 28 34 36 31 36 43 44 41 32 31 34 34 40 42 44 40 38 40 40 41 42 46 44 50 52 52 50 52 53 58 65 68 68 65 60 77 75 80 84 72 54 72 82 78 65 78 91 84
23 24 25 29 28 33 46 49 41 35 33 32 35 41 40 38 37 36 36 38 39 40 43 45 45 50 50 48 50 51 51 54 54 57 52 52 61 66 71 67 81 69 63 70 82 73 82 90 96
21 22 31 33 28 36 42 48 43 35 32 30 32 38 38 37 37 38 37 38 39 40 41 46 45 48 48 45 45 46 46 48 49 52 57 58 59 70 71 71 72 71 71 75 74 69 74 94 92
24 22 25 27 29 46 34 63 44 38 34 30 33 40 40 35 34 36 40 41 39 40 40 43 46 48 51 48 46 47 50 50 51 51 52 60 57 66 70 70 74 73 66 74 74 75 70 77 85
23 23 26 28 33 38 35 51 44 35 38 39 42 42 40 36 38 39 36 38 39 39 41 43 46 49 51 50 49 49 49 54 51 53 56 58 59 57 67 67 68 66 61 71 68 75 63 72 74
21 28 28 27 32 62 37 41 61 40 36 36 38 40 37 38 38 35 31 35 38 38 40 43 45 48 50 51 52 51 53 54 57 57 58 58 60 58 64 66 65 68 63 68 66 71 58 70 67
23 33 52 57 69 67 33 39 51 33 29 34 38 39 36 36 41 41 39 38 37 38 38 42 45 48 51 54 53 54 55 57 57 58 61 58 63 60 63 64 64 67 60 67 60 67 58 69 66
29 35 63 54 58 48 31 53 41 29 26 30 34 35 36 39 39 41 38 38 37 37 36 39 44 48 51 53 53 54 56 58 58 59 61 62 61 62 61 62 62 63 62 66 63 63 59 67 68
27 36 29 36 36 50 37 43 36 30 32 32 37 36 40 41 41 42 38 36 36 40 39 38 42 46 49 51 52 54 56 58 58 60 60 63 62 62 60 61 61 62 62 63 67 59 54 61 69
23 22 40 64 51 51 47 50 60 41 40 38 39 42 42 42 41 43 41 38 37 41 42 39 40 45 48 50 54 54 55 56 57 59 60 62 61 60 58 59 60 61 59 63 64 58 51 54 62
27 31 45 55 62 66 71 63 38 39 40 41 40 40 41 42 43 40 39 38 38 43 42 41 39 43 46 50 54 55 54 57 58 59 60 60 58 59 58 58 59 60 60 66 58 54 57 56 57
22 25 50 72 57 78 85 77 41 37 38 38 38 39 40 41 40 38 38 42 40 44 44 39 39 42 43 47 52 55 54 56 59 59 58 58 57 58 57 58 58 60 59 61 55 60 60 60 61
Wind_Speed
18 18 18 3 4 3 4 10 8 19 13 2 8 5 11 13 9 8 22 25 24 22 21 20 22 20 18 16 14 13 13 13 14 15 15 13 11 11 11 11 11 11 10 10 9 9 10 11 11
16 15 4 1 3 3 6 4 21 19 24 24 18 19 19 13 11 11 15 30 21 21 21 21 19 20 19 17 15 13 13 13 13 13 13 12 10 9 8 9 9 9 9 9 8 8 8 9 8
13 6 3 3 3 4 3 16 18 12 17 12 8 11 5 4 7 6 18 28 23 22 20 19 18 18 17 17 15 13 13 12 12 11 10 10 10 9 8 7 7 8 8 7 6 7 7 6 5
8 4 4 2 8 9 1 3 9 5 6 16 17 10 3 3 5 14 6 21 25 23 20 19 18 17 16 15 14 14 12 11 10 9 8 8 8 7 6 5 5 6 6 6 5 4 5 4 3
5 1 1 2 6 6 23 23 15 20 5 13 12 7 3 6 10 15 31 23 27 22 20 19 18 17 16 15 14 13 12 10 8 7 7 6 6 5 4 4 3 3 4 4 3 2 2 1 0
4 2 1 2 6 7 19 14 20 20 16 20 14 12 3 6 11 22 29 33 25 24 21 20 19 16 14 13 12 11 9 8 7 7 6 5 4 4 3 4 3 3 2 2 2 0 2 2 2
3 3 4 8 8 5 13 10 21 18 13 16 13 8 3 1 12 21 26 30 24 21 22 14 16 15 15 12 9 8 7 7 7 5 4 3 3 3 3 3 3 4 3 2 2 2 3 4 5
3 2 2 6 3 6 13 18 14 12 10 5 7 6 6 6 18 20 21 21 17 15 16 18 19 11 11 12 9 7 6 5 4 4 3 3 2 1 2 2 2 4 5 5 5 5 6 7 8
2 3 4 4 7 7 17 14 17 13 16 20 11 11 13 15 20 23 25 23 21 18 13 9 11 12 11 4 8 6 6 3 2 1 2 5 1 3 5 0 2 6 7 7 5 6 7 9 11
5 4 5 8 4 12 10 8 9 14 16 14 12 12 17 20 19 21 20 20 22 20 20 14 10 7 9 10 8 5 1 3 3 3 3 4 5 5 5 7 7 8 8 7 6 6 7 9 12
4 5 9 11 9 14 11 13 14 19 13 6 7 8 12 20 21 22 23 24 21 20 19 18 17 14 10 10 8 10 13 10 5 2 5 8 8 6 7 9 10 10 13 12 8 6 6 8 10
4 8 7 13 20 12 10 7 13 17 14 9 7 10 18 15 18 19 19 22 19 20 20 18 18 18 16 12 12 8 7 9 9 6 7 4 7 6 7 8 10 11 13 14 15 14 12 10 11
6 4 8 16 23 19 20 9 12 13 11 12 15 15 11 14 19 24 24 22 21 20 20 20 17 18 17 15 14 13 14 12 13 10 11 9 8 8 10 11 12 13 13 11 13 15 17 18 16
7 16 12 11 17 9 21 17 5 10 12 14 14 13 12 14 17 20 23 21 21 18 18 17 17 17 18 16 16 14 14 15 17 16 18 15 13 11 11 12 13 15 17 19 20 20 18 17 17
19 15 12 6 5 14 14 8 9 11 16 19 12 12 10 10 17 17 20 20 19 19 16 17 18 18 18 16 19 17 16 15 18 20 20 21 20 17 16 15 15 16 17 18 20 20 20 21 20
9 6 6 6 8 7 3 7 5 6 14 15 13 11 9 6 12 19 20 19 18 18 19 16 18 17 20 13 21 23 22 23 22 20 20 21 19 18 19 21 22 19 17 17 17 18 21 21 22
2 9 7 4 7 5 3 9 6 6 11 16 13 10 7 6 11 17 21 20 19 18 17 17 19 19 20 18 20 22 22 25 25 23 23 20 21 21 21 22 23 22 22 24 24 21 19 19 21
6 9 7 9 10 7 7 7 8 7 11 14 16 12 11 8 6 12 13 16 15 17 17 16 21 19 18 22 22 25 24 23 24 24 26 26 25 26 21 23 25 24 24 25 25 22 23 20 24
8 8 13 12 10 10 9 12 10 9 8 8 11 14 13 10 14 14 13 14 16 19 18 20 20 19 18 18 20 22 24 24 24 25 23 24 25 26 26 25 27 29 29 28 29 28 25 25 28
12 16 9 11 15 7 13 9 7 7 7 7 10 12 14 9 9 15 14 15 18 17 17 17 17 20 18 17 19 19 21 22 23 21 23 25 23 25 25 26 25 28 30 29 29 32 26 22 27
12 11 9 22 12 9 11 3 9 9 7 11 10 13 13 12 9 8 14 15 15 15 17 17 18 18 17 19 19 22 20 22 22 22 24 24 23 24 26 27 26 27 27 27 29 29 29 21 23
13 17 19 18 15 7 7 4 12 13 13 11 13 14 14 13 11 12 16 18 16 15 16 15 17 16 17 17 22 23 22 22 21 21 20 22 23 23 24 24 24 24 25 25 25 23 27 25 22
5 17 14 13 12 7 9 5 5 16 11 9 9 9 10 10 10 9 17 20 18 14 17 17 17 16 17 18 20 20 20 20 20 19 20 21 21 23 23 23 23 24 25 24 23 22 25 24 24
10 13 16 10 5 1 9 7 5 16 21 15 11 12 12 10 9 16 20 23 19 14 17 18 17 17 15 17 17 19 19 18 20 20 20 19 20 22 22 21 22 21 22 22 21 21 24 23 22
11 12 2 1 1 5 8 7 9 22 23 23 22 17 15 12 9 8 14 22 19 15 17 20 18 17 15 15 15 18 19 18 17 18 17 16 18 20 20 19 20 21 22 20 20 20 23 22 22
7 9 6 6 5 5 8 6 7 20 23 20 20 19 17 15 12 10 18 25 21 14 16 19 19 17 14 13 14 14 14 15 15 14 13 14 15 16 15 16 17 17 19 20 20 19 22 20 20
5 8 7 4 1 4 5 3 7 9 17 20 21 20 18 15 13 9 22 25 22 15 14 17 16 14 13 13 13 13 12 12 13 12 11 11 12 12 13 15 16 17 19 19 16 19 22 20 19
10 5 4 3 3 3 4 7 8 12 16 21 21 19 17 15 12 11 21 26 24 20 13 16 16 14 13 11 12 11 11 11 10 9 10 11 11 13 14 16 17 18 19 17 14 20 23 22 21
4 4 2 5 5 4 1 4 3 12 17 23 20 19 18 15 12 12 20 26 27 22 18 13 17 14 12 10 9 9 10 9 8 9 10 11 12 15 16 18 17 17 18 12 16 24 27 28 25
1 4 5 5 6 2 4 5 7 13 13 19 19 18 16 15 12 15 22 28 28 26 20 15 14 13 10 9 8 8 7 6 7 8 9 11 13 13 15 15 15 16 16 12 17 24 27 29 25
Wind_Direction
313 321 317 305 38 63 288 264 112 116 113 151 127 148 92 56 73 89 132 105 105 97 94 94 98 98 97 93 89 87 93 90 90 86 87 90 91 84 78 74 71 74 71 62 56 70 90 97 94
318 338 341 315 98 325 284 339 95 103 111 119 79 76 69 77 49 98 99 112 111 100 95 95 100 99 97 93 91 97 102 98 97 90 84 86 88 81 75 68 60 60 63 66 65 77 92 97 95
310 294 58 136 192 217 279 68 119 108 78 97 96 45 8 11 336 346 58 121 112 100 96 93 94 100 101 100 96 97 101 102 102 97 91 92 90 87 73 63 57 51 49 54 67 90 105 102 91
324 33 339 78 265 273 272 46 65 57 46 78 105 85 108 277 284 348 39 103 98 99 96 94 93 96 102 102 101 103 102 100 101 99 95 88 91 92 83 69 55 51 45 40 51 93 115 119 106
296 90 305 251 301 299 62 68 55 75 18 94 95 110 54 332 338 48 112 95 92 95 93 90 90 92 96 102 104 107 109 107 104 101 96 88 83 69 64 67 69 57 52 44 40 67 131 139 112
338 164 280 336 337 358 74 83 100 103 102 91 82 96 38 359 53 71 85 97 92 86 80 82 82 81 84 94 101 104 105 107 110 112 103 87 73 63 54 52 52 51 55 51 43 76 214 251 263
196 320 195 42 339 23 40 56 77 88 82 93 137 104 105 102 86 84 87 98 98 92 80 80 78 79 79 78 87 99 105 111 112 107 96 76 58 54 54 44 34 20 358 339 310 254 244 254 264
166 107 185 143 66 344 73 44 49 41 57 104 176 128 148 177 110 90 81 85 84 90 92 88 78 82 78 76 70 84 95 103 108 104 78 35 22 46 36 31 43 7 355 331 304 278 261 257 263
256 38 301 121 51 67 69 80 62 69 72 68 86 91 136 125 107 96 85 79 72 59 61 83 94 92 84 97 60 75 69 82 71 61 61 15 52 317 278 264 329 328 317 303 292 283 277 274 270
136 126 345 106 109 92 81 90 105 90 66 54 85 134 139 142 122 102 89 78 75 66 52 55 66 75 94 77 68 22 22 14 56 53 37 5 344 306 253 289 312 301 290 295 269 281 280 275 275
217 193 132 127 141 96 67 68 91 95 81 62 80 57 91 88 95 94 88 78 69 65 58 53 58 60 72 73 70 70 68 66 57 222 322 285 312 336 324 316 281 274 278 270 255 244 266 289 285
185 225 167 124 118 103 100 78 70 72 103 120 84 68 64 64 69 79 89 85 72 59 56 52 58 59 57 67 70 68 62 46 52 35 17 315 312 308 320 355 1 345 315 299 276 258 263 262 272
139 64 40 108 120 120 127 135 110 88 85 87 81 75 68 65 65 67 77 80 73 60 52 47 57 59 54 66 65 58 54 45 29 18 20 10 1 343 327 325 322 328 334 339 327 325 284 261 269
122 108 86 71 103 104 118 135 107 140 116 92 87 69 60 56 69 71 69 68 69 61 53 51 58 59 52 63 49 54 57 50 45 41 39 37 27 7 353 346 334 326 323 323 320 322 318 322 297
127 102 91 72 76 120 127 32 105 139 113 105 93 97 94 81 78 84 79 70 69 64 53 58 54 59 55 67 56 62 61 58 53 48 39 39 40 36 33 22 9 1 348 328 313 316 318 313 305
99 59 98 182 132 190 76 140 160 137 119 111 106 89 87 60 78 85 90 81 68 66 58 61 57 61 63 90 72 72 70 63 51 44 41 30 28 35 40 36 30 19 7 0 352 337 325 322 324
196 145 124 167 173 140 126 139 201 175 139 128 126 127 121 88 62 73 75 82 73 69 62 62 65 60 64 88 76 80 81 65 55 51 49 45 40 37 43 36 32 30 29 28 22 12 4 1 335
171 156 160 153 188 159 119 137 174 199 154 154 143 153 142 140 128 97 85 83 79 72 60 67 67 65 69 75 86 85 79 72 60 55 51 49 45 44 45 39 37 34 32 29 25 23 26 16 0
196 185 184 173 185 157 142 150 178 181 159 166 161 151 138 140 140 124 116 101 92 76 66 57 66 68 69 74 73 82 78 76 69 66 50 48 47 44 47 43 40 40 41 37 32 28 21 18 13
201 211 204 169 162 132 140 166 188 197 172 164 147 137 127 121 112 106 98 90 86 87 81 69 68 69 66 72 71 93 82 75 71 67 51 48 50 47 46 42 43 36 38 39 36 31 25 25 28
230 245 134 136 183 115 113 119 181 215 190 192 172 150 146 146 132 137 141 119 101 93 89 82 69 72 70 75 87 86 85 73 69 66 63 50 51 50 44 44 44 40 38 36 35 33 31 20 28
224 156 153 151 161 158 178 209 198 192 208 201 163 156 154 152 154 163 145 129 114 103 102 93 81 75 74 79 84 80 78 74 70 71 67 55 45 53 49 48 44 41 39 40 38 35 33 30 23
187 125 143 156 171 117 222 105 222 179 196 173 149 138 144 150 144 141 141 135 126 120 115 100 95 85 85 79 80 86 83 79 75 70 66 57 44 47 48 42 42 36 38 44 38 35 31 34 27
135 129 144 153 202 326 201 167 205 181 194 177 161 150 145 143 142 140 135 127 122 116 126 118 105 98 88 88 83 80 81 74 67 63 57 53 44 41 43 42 39 35 36 39 35 32 29 30 27
119 133 110 17 176 203 188 205 228 197 194 180 172 163 158 154 145 144 142 135 134 148 134 123 114 106 97 88 83 78 79 73 68 61 56 50 46 37 37 39 37 34 32 39 33 34 27 26 23
157 142 156 165 185 208 195 215 241 195 193 171 160 156 156 155 154 160 153 144 141 135 131 127 120 111 104 96 83 80 76 73 69 63 59 50 47 38 34 39 39 35 31 33 28 33 20 19 19
218 175 183 131 228 109 213 35 348 129 146 150 152 156 157 156 158 161 153 144 138 139 136 133 122 119 111 108 99 88 86 82 78 70 62 62 52 47 38 39 38 34 30 30 23 23 13 14 13
164 163 122 13 148 208 262 173 177 154 151 153 158 159 157 155 160 146 149 149 148 151 147 139 135 129 124 115 106 99 89 83 79 70 57 58 50 43 37 35 35 29 27 26 19 17 13 12 10
110 189 121 120 140 168 200 271 165 169 157 162 162 160 158 157 161 156 152 153 153 153 161 153 141 137 129 122 112 99 92 88 72 62 51 44 46 39 32 32 29 26 25 26 10 11 8 8 4
322 171 129 135 265 192 138 272 307 175 157 158 159 157 158 158 162 159 158 153 157 160 162 156 148 141 139 133 121 112 104 91 68 56 49 38 45 39 31 29 25 22 20 7 6 6 5 4 1